Cocoa Beach, FL

11:26 PM EDT on October 23, 2017 (GMT -0400)
Patrick Air Force Base

Weather History for KCOF - November, 2012

Change the Weather History Date:

Sunday, November 18, 2012

  Actual Average Record
Temperature  
Mean Temperature 68 °F -  
Max Temperature 73 °F 75 °F 84 °F (1998)
Min Temperature 62 °F 63 °F 48 °F (2002)
Cooling Degree Days 2    
Growing Degree Days 18 (Base 50)    
Moisture  
Dew Point 62 °F    
Average Humidity 81    
Maximum Humidity 94    
Minimum Humidity 67    
Precipitation  
Precipitation 0.00 in - - ()
Sea Level Pressure  
Sea Level Pressure 30.14 in    
Wind  
Wind Speed 16 mph (NNW)    
Max Wind Speed 22 mph    
Max Gust Speed 28 mph    
Visibility 10 miles    
Events      
Averages and records for this station are not official NWS values.
T = Trace of Precipitation, MM = Missing Value Source: NWS Daily Summary

Daily Weather History Graph

Daily Weather History Graph

Search for Another Location

Airport or City:

Trip Planner

Search our weather history database for the weather conditions in past years. The results will help you decide how hot, cold, wet, or windy it might be!

Date:

Astronomy

Nov. 18, 2012 Rise Set
Actual Time 6:47 AM EST 5:28 PM EST
Civil Twilight 6:22 AM EST 5:53 PM EST
Nautical Twilight 5:53 AM EST 6:21 PM EST
Astronomical Twilight 5:25 AM EST 6:49 PM EST
Moon 11:17 AM EST (11/18) 10:38 PM EST (11/18)
Length of Visible Light 11h 30m
Length of Day
10h 40m
Waxing Crescent, 30% of the Moon is Illuminated
Nov 18
Waxing Crescent
Nov 20
First Quarter
Nov 28
Full
Dec 6
Last Quarter
Dec 13
New

Hourly Weather History & Observations

Time (EST) Temp. Dew Point Humidity Pressure Visibility Wind Dir Wind Speed Gust Speed Precip Events Conditions
12:55 AM 66.9 °F 63.7 °F 89% 30.12 in 10.0 mi North 15.0 mph - N/A   Partly Cloudy
1:12 AM 66.2 °F 64.4 °F 94% 30.11 in 10.0 mi NNW 12.7 mph - N/A   Light Drizzle
1:19 AM 66.2 °F 64.4 °F 94% 30.11 in 10.0 mi North 11.5 mph - N/A   Partly Cloudy
1:55 AM 67.1 °F 64.4 °F 91% 30.10 in 10.0 mi NNW 6.9 mph - 0.00 in   Mostly Cloudy
2:55 AM 66.6 °F 63.7 °F 90% 30.09 in 10.0 mi NNW 12.7 mph - N/A   Clear
3:55 AM 66.9 °F 64.0 °F 90% 30.10 in 10.0 mi NNW 17.3 mph - N/A   Clear
4:17 AM 66.2 °F 64.4 °F 94% 30.10 in 10.0 mi NNW 15.0 mph - N/A   Mostly Cloudy
4:24 AM 66.2 °F 64.4 °F 94% 30.10 in 10.0 mi NNW 15.0 mph - N/A   Mostly Cloudy
4:32 AM 66.2 °F 64.4 °F 94% 30.10 in 10.0 mi NNW 13.8 mph - N/A   Mostly Cloudy
4:55 AM 66.9 °F 64.0 °F 90% 30.10 in 10.0 mi NNW 17.3 mph 23.0 mph N/A   Overcast
5:14 AM 66.2 °F 64.4 °F 94% 30.10 in 10.0 mi NNW 17.3 mph 23.0 mph N/A   Mostly Cloudy
5:55 AM 66.7 °F 63.7 °F 90% 30.11 in 10.0 mi NNW 16.1 mph 25.3 mph N/A   Mostly Cloudy
6:12 AM 66.2 °F 64.4 °F 94% 30.12 in 10.0 mi NNW 16.1 mph 24.2 mph N/A   Mostly Cloudy
6:38 AM 66.2 °F 62.6 °F 88% 30.13 in 10.0 mi NNW 19.6 mph - N/A   Scattered Clouds
6:46 AM 66.2 °F 62.6 °F 88% 30.13 in 10.0 mi NNW 18.4 mph 25.3 mph N/A   Mostly Cloudy
6:55 AM 66.0 °F 63.1 °F 90% 30.13 in 10.0 mi NNW 15.0 mph 24.2 mph N/A   Mostly Cloudy
6:58 AM 66.2 °F 62.6 °F 88% 30.13 in 10.0 mi NNW 17.3 mph 24.2 mph N/A   Mostly Cloudy
7:06 AM 66.2 °F 62.6 °F 88% 30.13 in 10.0 mi NNW 19.6 mph 25.3 mph N/A   Mostly Cloudy
7:55 AM 67.3 °F 63.3 °F 87% 30.14 in 10.0 mi NNW 15.0 mph - N/A   Mostly Cloudy
8:02 AM 68.0 °F 62.6 °F 83% 30.14 in 10.0 mi NNW 18.4 mph - N/A   Mostly Cloudy
8:55 AM 68.5 °F 63.3 °F 83% 30.16 in 10.0 mi NNW 18.4 mph - N/A   Overcast
9:13 AM 69.8 °F 62.6 °F 78% 30.15 in 10.0 mi North 19.6 mph 25.3 mph N/A   Overcast
9:55 AM 70.7 °F 62.2 °F 75% 30.16 in 10.0 mi NNW 18.4 mph 26.5 mph N/A   Mostly Cloudy
10:04 AM 71.6 °F 62.6 °F 73% 30.16 in 10.0 mi NNW 17.3 mph - N/A   Scattered Clouds
10:10 AM 71.6 °F 62.6 °F 73% 30.16 in 10.0 mi NNW 20.7 mph 25.3 mph N/A   Mostly Cloudy
10:18 AM 73.4 °F 62.6 °F 69% 30.16 in 10.0 mi NNW 17.3 mph 25.3 mph N/A   Mostly Cloudy
10:27 AM 73.4 °F 62.6 °F 69% 30.17 in 10.0 mi North 18.4 mph 25.3 mph N/A   Mostly Cloudy
10:33 AM 73.4 °F 62.6 °F 69% 30.17 in 10.0 mi North 20.7 mph 27.6 mph N/A   Overcast
10:55 AM 72.7 °F 61.3 °F 67% 30.16 in 10.0 mi North 18.4 mph 26.5 mph N/A   Scattered Clouds
11:55 AM 72.0 °F 60.8 °F 68% 30.16 in 10.0 mi NNW 17.3 mph 24.2 mph N/A   Partly Cloudy
12:38 PM 71.6 °F 60.8 °F 69% 30.14 in 10.0 mi NNW 19.6 mph 27.6 mph N/A   Mostly Cloudy
12:55 PM 71.6 °F 61.3 °F 70% 30.14 in 10.0 mi NNW 19.6 mph - N/A   Mostly Cloudy
1:55 PM 71.4 °F 60.4 °F 68% 30.12 in 10.0 mi NNW 19.6 mph 25.3 mph N/A   Mostly Cloudy
2:10 PM 71.6 °F 60.8 °F 69% 30.11 in 10.0 mi NNW 17.3 mph 25.3 mph N/A   Scattered Clouds
2:42 PM 71.6 °F 60.8 °F 69% 30.12 in 10.0 mi NNW 17.3 mph 25.3 mph N/A   Mostly Cloudy
2:55 PM 71.2 °F 61.3 °F 71% 30.12 in 10.0 mi North 17.3 mph 25.3 mph N/A   Scattered Clouds
3:55 PM 69.8 °F 61.5 °F 75% 30.12 in 10.0 mi NNW 18.4 mph 24.2 mph N/A   Clear
4:55 PM 67.3 °F 60.8 °F 80% 30.13 in 10.0 mi North 19.6 mph 25.3 mph N/A   Partly Cloudy
5:55 PM 65.1 °F 59.4 °F 82% 30.14 in 10.0 mi North 19.6 mph 25.3 mph N/A   Scattered Clouds
6:55 PM 64.0 °F 58.3 °F 82% 30.16 in 10.0 mi NNW 21.9 mph 26.5 mph N/A   Clear
7:55 PM 63.5 °F 57.2 °F 80% 30.17 in 10.0 mi NNW 19.6 mph 25.3 mph N/A   Clear
8:20 PM 64.4 °F 57.2 °F 77% 30.18 in 10.0 mi NNW 18.4 mph - N/A   Mostly Cloudy
8:42 PM 64.4 °F 57.2 °F 77% 30.18 in 10.0 mi North 18.4 mph - N/A   Overcast
8:55 PM 63.3 °F 56.1 °F 77% 30.18 in 10.0 mi NNW 17.3 mph 24.2 mph N/A   Mostly Cloudy
9:07 PM 62.6 °F 55.4 °F 77% 30.17 in 10.0 mi North 16.1 mph 25.3 mph N/A   Scattered Clouds
9:55 PM 62.8 °F 55.9 °F 78% 30.17 in 10.0 mi North 12.7 mph - N/A   Partly Cloudy
10:55 PM 63.3 °F 55.9 °F 77% 30.17 in 10.0 mi North 18.4 mph - N/A   Partly Cloudy
11:55 PM 62.2 °F 56.3 °F 81% 30.15 in 10.0 mi NNW 13.8 mph - N/A   Clear